| time (UTC) | temp F | wind direction | speed MPH | gust MPH | rain 1hr in | rain 24hr in | rain mn in | humidity % | barometer mb |
| 20260831021547 | 90 | 134 | 3.0 | 7.0 | 0.00 | 0.00 | 0.00 | 43 | 1013.4 |
| 20260831021031 | 90 | 138 | 3.0 | 7.0 | 0.00 | 0.00 | 0.00 | 43 | 1013.4 |
| 20260831020525 | 90 | 139 | 3.0 | 7.0 | 0.00 | 0.00 | 0.00 | 42 | 1013.4 |
| 20260831020103 | 90 | 137 | 3.0 | 7.0 | 0.00 | 0.00 | 0.00 | 42 | 1013.3 |
| 20260831015526 | 91 | 136 | 3.0 | 7.0 | 0.00 | 0.00 | 0.00 | 42 | 1013.1 |
| 20260831015020 | 91 | 130 | 3.0 | 7.0 | 0.00 | 0.00 | 0.00 | 42 | 1013.1 |
| 20260831014544 | 91 | 146 | 4.0 | 7.0 | 0.00 | 0.00 | 0.00 | 41 | 1013.1 |
| 20260831014021 | 91 | 144 | 3.0 | 7.0 | 0.00 | 0.00 | 0.00 | 41 | 1013.0 |
| 20260831013525 | 91 | 136 | 3.0 | 8.0 | 0.00 | 0.00 | 0.00 | 41 | 1013.0 |
| 20260831013040 | 92 | 144 | 4.0 | 8.0 | 0.00 | 0.00 | 0.00 | 40 | 1013.0 |
| 20260831012524 | 92 | 129 | 4.0 | 8.0 | 0.00 | 0.00 | 0.00 | 40 | 1012.9 |
| 20260831012024 | 92 | 137 | 3.0 | 9.0 | 0.00 | 0.00 | 0.00 | 39 | 1012.9 |
| 20260831011556 | 93 | 136 | 4.0 | 10.0 | 0.00 | 0.00 | 0.00 | 39 | 1012.8 |
| 20260831011022 | 93 | 138 | 6.0 | 10.0 | 0.00 | 0.00 | 0.00 | 38 | 1012.8 |
| 20260831010522 | 93 | 140 | 5.0 | 10.0 | 0.00 | 0.00 | 0.00 | 38 | 1012.7 |
| 20260831010041 | 94 | 144 | 5.0 | 9.0 | 0.00 | 0.00 | 0.00 | 37 | 1012.8 |
| 20260831005521 | 94 | 143 | 5.0 | 11.0 | 0.00 | 0.00 | 0.00 | 36 | 1012.8 |
| 20260831005020 | 94 | 157 | 6.0 | 11.0 | 0.00 | 0.00 | 0.00 | 36 | 1012.8 |
| 20260831004552 | 95 | 144 | 6.0 | 11.0 | 0.00 | 0.00 | 0.00 | 36 | 1012.7 |
| 20260831004021 | 95 | 140 | 6.0 | 12.0 | 0.00 | 0.00 | 0.00 | 36 | 1012.7 |
| 20260831003523 | 95 | 118 | 6.0 | 12.0 | 0.00 | 0.00 | 0.00 | 36 | 1012.7 |
| 20260831003048 | 95 | 142 | 8.0 | 12.0 | 0.00 | 0.00 | 0.00 | 35 | 1012.7 |
| 20260831002519 | 96 | 144 | 6.0 | 16.0 | 0.00 | 0.00 | 0.00 | 35 | 1012.7 |
| 20260831002024 | 96 | 158 | 7.0 | 16.0 | 0.00 | 0.00 | 0.00 | 35 | 1012.7 |
| 20260831001548 | 96 | 145 | 6.0 | 14.0 | 0.00 | 0.00 | 0.00 | 36 | 1012.6 |
| 20260831001019 | 96 | 133 | 3.0 | 16.0 | 0.00 | 0.00 | 0.00 | 36 | 1012.7 |
| 20260831000520 | 96 | 138 | 9.0 | 16.0 | 0.00 | 0.00 | 0.00 | 34 | 1012.7 |
| 20260831000047 | 96 | 130 | 5.0 | 15.0 | 0.00 | 0.00 | 0.00 | 34 | 1012.7 |
| 20260830235523 | 97 | 150 | 8.0 | 15.0 | 0.00 | 0.00 | 0.00 | 34 | 1012.8 |
| 20260830235026 | 97 | 136 | 7.0 | 14.0 | 0.00 | 0.00 | 0.00 | 35 | 1012.7 |
| 20260830234547 | 97 | 118 | 8.0 | 14.0 | 0.00 | 0.00 | 0.00 | 34 | 1012.7 |
| 20260830234022 | 97 | 142 | 7.0 | 14.0 | 0.00 | 0.00 | 0.00 | 35 | 1012.8 |
| 20260830233521 | 97 | 155 | 8.0 | 14.0 | 0.00 | 0.00 | 0.00 | 34 | 1012.7 |
| 20260830233042 | 97 | 150 | 6.0 | 12.0 | 0.00 | 0.00 | 0.00 | 33 | 1012.7 |
| 20260830232519 | 98 | 168 | 3.0 | 15.0 | 0.00 | 0.00 | 0.00 | 34 | 1012.8 |
| 20260830232027 | 97 | 163 | 8.0 | 15.0 | 0.00 | 0.00 | 0.00 | 34 | 1012.7 |
| 20260830231541 | 98 | 143 | 8.0 | 13.0 | 0.00 | 0.00 | 0.00 | 34 | 1012.7 |
| 20260830231024 | 98 | 119 | 5.0 | 13.0 | 0.00 | 0.00 | 0.00 | 34 | 1012.7 |
| 20260830230521 | 98 | 174 | 6.0 | 13.0 | 0.00 | 0.00 | 0.00 | 34 | 1012.8 |
| 20260830230047 | 98 | 148 | 4.0 | 13.0 | 0.00 | 0.00 | 0.00 | 34 | 1012.9 |
| 20260830225522 | 98 | 175 | 3.0 | 13.0 | 0.00 | 0.00 | 0.00 | 34 | 1013.0 |
| 20260830225019 | 98 | 148 | 7.0 | 13.0 | 0.00 | 0.00 | 0.00 | 34 | 1012.9 |
| 20260830224544 | 98 | 113 | 4.0 | 14.0 | 0.00 | 0.00 | 0.00 | 34 | 1012.9 |
| 20260830224025 | 98 | 112 | 5.0 | 14.0 | 0.00 | 0.00 | 0.00 | 34 | 1012.9 |
| 20260830223521 | 98 | 128 | 7.0 | 16.0 | 0.00 | 0.00 | 0.00 | 34 | 1013.0 |
| 20260830223040 | 99 | 197 | 6.0 | 16.0 | 0.00 | 0.00 | 0.00 | 34 | 1013.0 |
| 20260830222523 | 99 | 169 | 5.0 | 11.0 | 0.00 | 0.00 | 0.00 | 34 | 1013.0 |
| 20260830222024 | 99 | 139 | 5.0 | 10.0 | 0.00 | 0.00 | 0.00 | 32 | 1012.9 |
| 20260830221551 | 100 | 200 | 2.0 | 7.0 | 0.00 | 0.00 | 0.00 | 33 | 1013.0 |
| 20260830221022 | 99 | 200 | 3.0 | 11.0 | 0.00 | 0.00 | 0.00 | 33 | 1013.0 |
| 20260830220524 | 99 | 105 | 6.0 | 11.0 | 0.00 | 0.00 | 0.00 | 32 | 1012.9 |
| 20260830220058 | 99 | 194 | 4.0 | 10.0 | 0.00 | 0.00 | 0.00 | 33 | 1013.1 |
| 20260830215520 | 100 | 154 | 3.0 | 9.0 | 0.00 | 0.00 | 0.00 | 33 | 1013.1 |
| 20260830215023 | 99 | 151 | 2.0 | 12.0 | 0.00 | 0.00 | 0.00 | 34 | 1013.0 |
| 20260830214544 | 98 | 135 | 4.0 | 12.0 | 0.00 | 0.00 | 0.00 | 34 | 1013.1 |
| 20260830214026 | 99 | 136 | 6.0 | 12.0 | 0.00 | 0.00 | 0.00 | 33 | 1013.1 |
| 20260830213523 | 100 | 192 | 4.0 | 9.0 | 0.00 | 0.00 | 0.00 | 33 | 1013.1 |
| 20260830213050 | 100 | 189 | 4.0 | 14.0 | 0.00 | 0.00 | 0.00 | 32 | 1013.3 |
| 20260830212521 | 99 | 199 | 7.0 | 15.0 | 0.00 | 0.00 | 0.00 | 33 | 1013.1 |
| 20260830212021 | 99 | 0 | 2.0 | 16.0 | 0.00 | 0.00 | 0.00 | 34 | 1013.1 |
| 20260830211554 | 98 | 146 | 10.0 | 16.0 | 0.00 | 0.00 | 0.00 | 35 | 1013.3 |
| 20260830211021 | 98 | 150 | 4.0 | 11.0 | 0.00 | 0.00 | 0.00 | 35 | 1013.4 |
| 20260830210520 | 99 | 140 | 4.0 | 17.0 | 0.00 | 0.00 | 0.00 | 34 | 1013.4 |
| 20260830210055 | 99 | 171 | 8.0 | 17.0 | 0.00 | 0.00 | 0.00 | 34 | 1013.5 |
| 20260830205525 | 99 | 166 | 9.0 | 17.0 | 0.00 | 0.00 | 0.00 | 34 | 1013.5 |
| 20260830205020 | 98 | 148 | 8.0 | 15.0 | 0.00 | 0.00 | 0.00 | 35 | 1013.5 |
| 20260830204543 | 100 | 186 | 7.0 | 15.0 | 0.00 | 0.00 | 0.00 | 33 | 1013.6 |
| 20260830204024 | 101 | 153 | 4.0 | 11.0 | 0.00 | 0.00 | 0.00 | 34 | 1013.7 |
| 20260830203522 | 100 | 221 | 4.0 | 11.0 | 0.00 | 0.00 | 0.00 | 35 | 1013.7 |
| 20260830203052 | 100 | 203 | 4.0 | 10.0 | 0.00 | 0.00 | 0.00 | 34 | 1013.9 |
| 20260830202524 | 99 | 0 | 3.0 | 12.0 | 0.00 | 0.00 | 0.00 | 34 | 1013.8 |
| 20260830202026 | 100 | 0 | 4.0 | 12.0 | 0.00 | 0.00 | 0.00 | 34 | 1014.0 |
| 20260830201544 | 100 | 190 | 5.0 | 12.0 | 0.00 | 0.00 | 0.00 | 34 | 1014.1 |
| 20260830201021 | 100 | 127 | 5.0 | 14.0 | 0.00 | 0.00 | 0.00 | 32 | 1014.0 |
| 20260830200521 | 100 | 192 | 5.0 | 14.0 | 0.00 | 0.00 | 0.00 | 34 | 1014.1 |
| 20260830200042 | 99 | 115 | 7.0 | 14.0 | 0.00 | 0.00 | 0.00 | 34 | 1014.2 |
| 20260830195520 | 99 | 140 | 5.0 | 11.0 | 0.00 | 0.00 | 0.00 | 36 | 1014.2 |
| 20260830195021 | 99 | 198 | 2.0 | 13.0 | 0.00 | 0.00 | 0.00 | 35 | 1014.3 |
| 20260830194549 | 100 | 193 | 6.0 | 13.0 | 0.00 | 0.00 | 0.00 | 34 | 1014.6 |
| 20260830194024 | 100 | 139 | 5.0 | 13.0 | 0.00 | 0.00 | 0.00 | 35 | 1014.5 |
| 20260830193523 | 100 | 158 | 4.0 | 11.0 | 0.00 | 0.00 | 0.00 | 35 | 1014.6 |
| 20260830193043 | 100 | 161 | 4.0 | 11.0 | 0.00 | 0.00 | 0.00 | 35 | 1014.6 |
| 20260830192522 | 99 | 197 | 5.0 | 13.0 | 0.00 | 0.00 | 0.00 | 35 | 1014.6 |
| 20260830192019 | 99 | 201 | 5.0 | 13.0 | 0.00 | 0.00 | 0.00 | 37 | 1014.7 |
| 20260830191542 | 99 | 140 | 6.0 | 15.0 | 0.00 | 0.00 | 0.00 | 36 | 1014.8 |
| 20260830191025 | 99 | 181 | 5.0 | 15.0 | 0.00 | 0.00 | 0.00 | 37 | 1014.9 |
| 20260830190526 | 99 | 214 | 5.0 | 14.0 | 0.00 | 0.00 | 0.00 | 37 | 1015.0 |
| 20260830190044 | 99 | 122 | 4.0 | 14.0 | 0.00 | 0.00 | 0.00 | 36 | 1015.0 |
| 20260830185526 | 98 | 123 | 3.0 | 11.0 | 0.00 | 0.00 | 0.00 | 38 | 1015.0 |
| 20260830185027 | 99 | 207 | 6.0 | 12.0 | 0.00 | 0.00 | 0.00 | 38 | 1015.1 |
| 20260830184550 | 99 | 193 | 4.0 | 12.0 | 0.00 | 0.00 | 0.00 | 38 | 1015.1 |
| 20260830184026 | 98 | 205 | 4.0 | 12.0 | 0.00 | 0.00 | 0.00 | 38 | 1015.1 |
| 20260830183527 | 99 | 180 | 6.0 | 13.0 | 0.00 | 0.00 | 0.00 | 38 | 1015.2 |
| 20260830183048 | 99 | 190 | 5.0 | 13.0 | 0.00 | 0.00 | 0.00 | 39 | 1015.3 |
| 20260830182525 | 98 | 197 | 4.0 | 15.0 | 0.00 | 0.00 | 0.00 | 41 | 1015.4 |
| 20260830182022 | 97 | 195 | 6.0 | 15.0 | 0.00 | 0.00 | 0.00 | 40 | 1015.5 |
| 20260830181541 | 98 | 197 | 7.0 | 15.0 | 0.00 | 0.00 | 0.00 | 39 | 1015.6 |
| 20260830181021 | 98 | 195 | 6.0 | 15.0 | 0.00 | 0.00 | 0.00 | 39 | 1015.7 |
| 20260830180524 | 98 | 217 | 6.0 | 12.0 | 0.00 | 0.00 | 0.00 | 38 | 1015.8 |
| 20260830180048 | 97 | 195 | 7.0 | 11.0 | 0.00 | 0.00 | 0.00 | 39 | 1015.9 |
| 20260830175522 | 97 | 157 | 5.0 | 17.0 | 0.00 | 0.00 | 0.00 | 41 | 1015.9 |
| 20260830175028 | 97 | 195 | 8.0 | 17.0 | 0.00 | 0.00 | 0.00 | 39 | 1016.0 |
| 20260830174542 | 97 | 180 | 6.0 | 13.0 | 0.00 | 0.00 | 0.00 | 41 | 1016.2 |
| 20260830174022 | 96 | 197 | 7.0 | 13.0 | 0.00 | 0.00 | 0.00 | 42 | 1016.3 |
| 20260830173520 | 97 | 154 | 6.0 | 14.0 | 0.00 | 0.00 | 0.00 | 42 | 1016.3 |
| 20260830173041 | 97 | 203 | 4.0 | 14.0 | 0.00 | 0.00 | 0.00 | 42 | 1016.3 |
| 20260830172522 | 96 | 196 | 5.0 | 13.0 | 0.00 | 0.00 | 0.00 | 42 | 1016.3 |
| 20260830172021 | 97 | 205 | 3.0 | 11.0 | 0.00 | 0.00 | 0.00 | 43 | 1016.4 |
| 20260830171542 | 96 | 202 | 5.0 | 11.0 | 0.00 | 0.00 | 0.00 | 43 | 1016.4 |
| 20260830171026 | 96 | 262 | 6.0 | 16.0 | 0.00 | 0.00 | 0.00 | 44 | 1016.5 |
| 20260830170524 | 96 | 196 | 4.0 | 16.0 | 0.00 | 0.00 | 0.00 | 43 | 1016.7 |
| 20260830170045 | 96 | 194 | 5.0 | 12.0 | 0.00 | 0.00 | 0.00 | 44 | 1016.7 |
| 20260830165524 | 96 | 169 | 6.0 | 13.0 | 0.00 | 0.00 | 0.00 | 45 | 1016.7 |
| 20260830165018 | 95 | 198 | 7.0 | 13.0 | 0.00 | 0.00 | 0.00 | 46 | 1016.7 |
| 20260830164543 | 95 | 226 | 6.0 | 12.0 | 0.00 | 0.00 | 0.00 | 44 | 1016.8 |
| 20260830164023 | 95 | 186 | 5.0 | 12.0 | 0.00 | 0.00 | 0.00 | 46 | 1016.8 |
| 20260830163520 | 95 | 185 | 5.0 | 12.0 | 0.00 | 0.00 | 0.00 | 47 | 1016.8 |
| 20260830163038 | 95 | 206 | 5.0 | 11.0 | 0.00 | 0.00 | 0.00 | 47 | 1017.0 |
| 20260830162524 | 95 | 209 | 5.0 | 10.0 | 0.00 | 0.00 | 0.00 | 48 | 1016.9 |
| 20260830162023 | 94 | 199 | 3.0 | 11.0 | 0.00 | 0.00 | 0.00 | 49 | 1017.0 |
| 20260830161559 | 94 | 192 | 7.0 | 11.0 | 0.00 | 0.00 | 0.00 | 48 | 1017.0 |
| 20260830161023 | 94 | 202 | 4.0 | 10.0 | 0.00 | 0.00 | 0.00 | 49 | 1017.1 |
| 20260830160524 | 93 | 202 | 5.0 | 10.0 | 0.00 | 0.00 | 0.00 | 50 | 1017.1 |
| 20260830160044 | 93 | 199 | 4.0 | 10.0 | 0.00 | 0.00 | 0.00 | 51 | 1017.1 |
| 20260830155520 | 93 | 197 | 5.0 | 10.0 | 0.00 | 0.00 | 0.00 | 51 | 1017.1 |
| 20260830155025 | 93 | 200 | 5.0 | 10.0 | 0.00 | 0.00 | 0.00 | 51 | 1017.1 |
| 20260830154541 | 93 | 206 | 3.0 | 10.0 | 0.00 | 0.00 | 0.00 | 53 | 1017.1 |
| 20260830154020 | 93 | 212 | 2.0 | 8.0 | 0.00 | 0.00 | 0.00 | 53 | 1017.1 |
| 20260830153520 | 92 | 199 | 1.0 | 8.0 | 0.00 | 0.00 | 0.00 | 55 | 1017.1 |
| 20260830153053 | 92 | 200 | 4.0 | 11.0 | 0.00 | 0.00 | 0.00 | 54 | 1017.1 |
| 20260830152522 | 91 | 209 | 4.0 | 11.0 | 0.00 | 0.00 | 0.00 | 55 | 1017.0 |
| 20260830152026 | 91 | 228 | 4.0 | 8.0 | 0.00 | 0.00 | 0.00 | 55 | 1017.0 |
| 20260830151547 | 91 | 204 | 4.0 | 8.0 | 0.00 | 0.00 | 0.00 | 56 | 1017.1 |
| 20260830151024 | 90 | 212 | 3.0 | 8.0 | 0.00 | 0.00 | 0.00 | 56 | 1017.1 |
| 20260830150528 | 90 | 208 | 3.0 | 8.0 | 0.00 | 0.00 | 0.00 | 56 | 1017.0 |
| 20260830150046 | 90 | 207 | 2.0 | 8.0 | 0.00 | 0.00 | 0.00 | 57 | 1017.1 |
| 20260830145524 | 89 | 221 | 2.0 | 8.0 | 0.00 | 0.00 | 0.00 | 58 | 1017.1 |
| 20260830145025 | 88 | 246 | 3.0 | 8.0 | 0.00 | 0.00 | 0.00 | 58 | 1017.1 |
| 20260830144549 | 88 | 211 | 4.0 | 9.0 | 0.00 | 0.00 | 0.00 | 58 | 1017.0 |
| 20260830144024 | 88 | 211 | 4.0 | 9.0 | 0.00 | 0.00 | 0.00 | 59 | 1017.0 |
| 20260830143523 | 88 | 217 | 2.0 | 6.0 | 0.00 | 0.00 | 0.00 | 60 | 1017.0 |
| 20260830143101 | 87 | 221 | 2.0 | 9.0 | 0.00 | 0.00 | 0.00 | 61 | 1017.0 |
| 20260830142523 | 86 | 264 | 3.0 | 9.0 | 0.00 | 0.00 | 0.00 | 63 | 1017.0 |
| 20260830142023 | 86 | 207 | 4.0 | 9.0 | 0.00 | 0.00 | 0.00 | 64 | 1017.1 |
| 20260830141543 | 85 | 207 | 4.0 | 8.0 | 0.00 | 0.00 | 0.00 | 65 | 1016.9 |
| 20260830141022 | 85 | 206 | 3.0 | 7.0 | 0.00 | 0.00 | 0.00 | 65 | 1017.0 |
| 20260830140525 | 84 | 196 | 4.0 | 7.0 | 0.00 | 0.00 | 0.00 | 66 | 1017.0 |
| 20260830140051 | 84 | 203 | 4.0 | 7.0 | 0.00 | 0.00 | 0.00 | 66 | 1017.1 |
| 20260830135526 | 83 | 192 | 3.0 | 7.0 | 0.00 | 0.00 | 0.00 | 67 | 1017.1 |
| 20260830135027 | 83 | 211 | 3.0 | 7.0 | 0.00 | 0.00 | 0.00 | 67 | 1017.1 |
| 20260830134550 | 83 | 209 | 3.0 | 6.0 | 0.00 | 0.00 | 0.00 | 68 | 1017.0 |
| 20260830134025 | 82 | 206 | 3.0 | 6.0 | 0.00 | 0.00 | 0.00 | 68 | 1016.9 |
| 20260830133523 | 82 | 210 | 2.0 | 5.0 | 0.00 | 0.00 | 0.00 | 69 | 1017.0 |
| 20260830133047 | 82 | 206 | 2.0 | 5.0 | 0.00 | 0.00 | 0.00 | 69 | 1016.9 |
| 20260830132521 | 82 | 198 | 2.0 | 5.0 | 0.00 | 0.00 | 0.00 | 69 | 1016.8 |
| 20260830132021 | 81 | 0 | 2.0 | 5.0 | 0.00 | 0.00 | 0.00 | 69 | 1016.8 |
| 20260830131543 | 81 | 200 | 2.0 | 5.0 | 0.00 | 0.00 | 0.00 | 69 | 1016.8 |
| 20260830131025 | 81 | 191 | 2.0 | 4.0 | 0.00 | 0.00 | 0.00 | 70 | 1016.6 |
| 20260830130525 | 80 | 192 | 1.0 | 4.0 | 0.00 | 0.00 | 0.00 | 71 | 1016.7 |
| 20260830130107 | 80 | 194 | 1.0 | 4.0 | 0.00 | 0.00 | 0.00 | 71 | 1016.7 |
| 20260830125527 | 80 | 186 | 1.0 | 4.0 | 0.00 | 0.00 | 0.00 | 71 | 1016.5 |
| 20260830125025 | 79 | 186 | 1.0 | 3.0 | 0.00 | 0.00 | 0.00 | 72 | 1016.6 |
| 20260830124547 | 79 | 0 | 0.0 | 0.0 | 0.00 | 0.00 | 0.00 | 73 | 1016.5 |
| 20260830124028 | 78 | 0 | 0.0 | 0.0 | 0.00 | 0.00 | 0.00 | 73 | 1016.4 |
| 20260830123523 | 78 | 0 | 0.0 | 0.0 | 0.00 | 0.00 | 0.00 | 73 | 1016.3 |
| 20260830123043 | 78 | 0 | 0.0 | 0.0 | 0.00 | 0.00 | 0.00 | 73 | 1016.3 |
| 20260830122523 | 78 | 0 | 0.0 | 2.0 | 0.00 | 0.00 | 0.00 | 72 | 1016.3 |
| 20260830122025 | 78 | 0 | 0.0 | 8.0 | 0.00 | 0.00 | 0.00 | 72 | 1016.3 |
| 20260830121544 | 78 | 138 | 1.0 | 8.0 | 0.00 | 0.00 | 0.00 | 72 | 1016.2 |
| 20260830121025 | 78 | 136 | 4.0 | 8.0 | 0.00 | 0.00 | 0.00 | 72 | 1016.1 |
| 20260830120525 | 78 | 150 | 2.0 | 7.0 | 0.00 | 0.00 | 0.00 | 72 | 1016.1 |
| 20260830120055 | 78 | 0 | 0.0 | 0.0 | 0.00 | 0.00 | 0.00 | 72 | 1016.0 |
| 20260830115525 | 78 | 0 | 0.0 | 0.0 | 0.00 | 0.00 | 0.00 | 72 | 1015.8 |
| 20260830115025 | 78 | 0 | 0.0 | 3.0 | 0.00 | 0.00 | 0.00 | 71 | 1015.7 |
| 20260830114608 | 78 | 0 | 0.0 | 4.0 | 0.00 | 0.00 | 0.00 | 71 | 1015.7 |
| 20260830114024 | 78 | 144 | 1.0 | 5.0 | 0.00 | 0.00 | 0.00 | 70 | 1015.7 |
| 20260830113525 | 78 | 145 | 2.0 | 5.0 | 0.00 | 0.00 | 0.00 | 70 | 1015.6 |
| 20260830113048 | 79 | 163 | 2.0 | 5.0 | 0.00 | 0.00 | 0.00 | 70 | 1015.5 |
| 20260830112525 | 79 | 180 | 2.0 | 4.0 | 0.00 | 0.00 | 0.00 | 69 | 1015.3 |
| 20260830112025 | 79 | 182 | 1.0 | 4.0 | 0.00 | 0.00 | 0.00 | 69 | 1015.2 |
| 20260830111543 | 79 | 180 | 2.0 | 5.0 | 0.00 | 0.00 | 0.00 | 69 | 1015.2 |
| 20260830111021 | 79 | 178 | 2.0 | 5.0 | 0.00 | 0.00 | 0.00 | 69 | 1015.3 |
| 20260830110524 | 79 | 150 | 1.0 | 3.0 | 0.00 | 0.00 | 0.00 | 69 | 1015.3 |
| 20260830110042 | 79 | 0 | 0.0 | 3.0 | 0.00 | 0.00 | 0.00 | 69 | 1015.2 |
| 20260830105523 | 79 | 0 | 0.0 | 3.0 | 0.00 | 0.00 | 0.00 | 69 | 1015.3 |
| 20260830105022 | 79 | 0 | 0.0 | 3.0 | 0.00 | 0.00 | 0.00 | 68 | 1015.2 |
| 20260830104542 | 79 | 146 | 1.0 | 4.0 | 0.00 | 0.00 | 0.00 | 68 | 1015.3 |
| 20260830104021 | 79 | 146 | 1.0 | 5.0 | 0.00 | 0.00 | 0.00 | 68 | 1015.2 |
| 20260830103521 | 79 | 147 | 2.0 | 5.0 | 0.00 | 0.00 | 0.00 | 68 | 1015.1 |
| 20260830103043 | 79 | 153 | 2.0 | 5.0 | 0.00 | 0.00 | 0.00 | 68 | 1015.2 |
| 20260830102522 | 78 | 162 | 0.0 | 4.0 | 0.00 | 0.00 | 0.00 | 69 | 1015.1 |
| 20260830102027 | 78 | 0 | 0.0 | 0.0 | 0.00 | 0.00 | 0.00 | 69 | 1015.1 |
| 20260830101550 | 78 | 0 | 0.0 | 0.0 | 0.00 | 0.00 | 0.00 | 67 | 1015.0 |
| 20260830101026 | 78 | 0 | 0.0 | 0.0 | 0.00 | 0.00 | 0.00 | 67 | 1015.0 |
| 20260830100524 | 78 | 0 | 0.0 | 0.0 | 0.00 | 0.00 | 0.00 | 66 | 1014.9 |
| 20260830100051 | 79 | 0 | 0.0 | 3.0 | 0.00 | 0.00 | 0.00 | 66 | 1015.0 |
| 20260830095524 | 79 | 0 | 0.0 | 4.0 | 0.00 | 0.00 | 0.00 | 65 | 1015.0 |
| 20260830095024 | 80 | 0 | 1.0 | 4.0 | 0.00 | 0.00 | 0.00 | 66 | 1015.0 |
| 20260830094547 | 80 | 164 | 2.0 | 4.0 | 0.00 | 0.00 | 0.00 | 66 | 1015.0 |
| 20260830094019 | 80 | 0 | 0.0 | 0.0 | 0.00 | 0.00 | 0.00 | 66 | 1015.1 |
| 20260830093522 | 80 | 0 | 0.0 | 2.0 | 0.00 | 0.00 | 0.00 | 66 | 1015.2 |
| 20260830093041 | 80 | 0 | 0.0 | 2.0 | 0.00 | 0.00 | 0.00 | 66 | 1015.1 |
| 20260830092527 | 80 | 0 | 0.0 | 2.0 | 0.00 | 0.00 | 0.00 | 65 | 1014.9 |
| 20260830092025 | 80 | 0 | 0.0 | 3.0 | 0.00 | 0.00 | 0.00 | 65 | 1014.9 |
| 20260830091550 | 80 | 0 | 0.0 | 4.0 | 0.00 | 0.00 | 0.00 | 65 | 1014.9 |
| 20260830091025 | 80 | 0 | 0.0 | 4.0 | 0.00 | 0.00 | 0.00 | 64 | 1014.9 |
| 20260830090525 | 80 | 0 | 0.0 | 4.0 | 0.00 | 0.00 | 0.00 | 64 | 1014.8 |
| 20260830090053 | 80 | 0 | 0.0 | 0.0 | 0.00 | 0.00 | 0.00 | 64 | 1014.8 |
| 20260830085528 | 81 | 0 | 0.0 | 3.0 | 0.00 | 0.00 | 0.00 | 63 | 1014.7 |
| 20260830085027 | 81 | 0 | 0.0 | 3.0 | 0.00 | 0.00 | 0.00 | 63 | 1014.7 |
| 20260830084542 | 81 | 176 | 0.0 | 3.0 | 0.00 | 0.00 | 0.00 | 62 | 1014.7 |
| 20260830084024 | 81 | 0 | 0.0 | 3.0 | 0.00 | 0.00 | 0.00 | 62 | 1014.7 |
| 20260830083525 | 82 | 181 | 0.0 | 3.0 | 0.00 | 0.00 | 0.00 | 61 | 1014.6 |
| 20260830083058 | 82 | 0 | 1.0 | 3.0 | 0.00 | 0.00 | 0.00 | 60 | 1014.7 |
| 20260830082523 | 82 | 188 | 1.0 | 3.0 | 0.00 | 0.00 | 0.00 | 60 | 1014.8 |
| 20260830082024 | 82 | 194 | 1.0 | 5.0 | 0.00 | 0.00 | 0.00 | 59 | 1014.9 |
| 20260830081542 | 82 | 194 | 1.0 | 5.0 | 0.00 | 0.00 | 0.00 | 59 | 1014.8 |
| 20260830081022 | 82 | 174 | 1.0 | 3.0 | 0.00 | 0.00 | 0.00 | 59 | 1014.8 |
| 20260830080523 | 83 | 174 | 1.0 | 3.0 | 0.00 | 0.00 | 0.00 | 59 | 1014.8 |
| 20260830080043 | 83 | 174 | 1.0 | 5.0 | 0.00 | 0.00 | 0.00 | 58 | 1014.8 |
| 20260830075527 | 83 | 174 | 2.0 | 5.0 | 0.00 | 0.00 | 0.00 | 58 | 1014.9 |
| 20260830075025 | 83 | 174 | 1.0 | 3.0 | 0.00 | 0.00 | 0.00 | 58 | 1015.0 |
| 20260830074552 | 83 | 173 | 2.0 | 4.0 | 0.00 | 0.00 | 0.00 | 58 | 1014.9 |
| 20260830074025 | 83 | 0 | 1.0 | 4.0 | 0.00 | 0.00 | 0.00 | 58 | 1014.9 |
| 20260830073525 | 83 | 0 | 0.0 | 5.0 | 0.00 | 0.00 | 0.00 | 58 | 1014.8 |
| 20260830073050 | 83 | 171 | 1.0 | 5.0 | 0.00 | 0.00 | 0.00 | 57 | 1014.9 |
| 20260830072527 | 83 | 164 | 1.0 | 4.0 | 0.00 | 0.00 | 0.00 | 57 | 1014.9 |
| 20260830072026 | 83 | 164 | 1.0 | 4.0 | 0.00 | 0.00 | 0.00 | 57 | 1014.9 |
| 20260830071550 | 83 | 164 | 1.0 | 4.0 | 0.00 | 0.00 | 0.00 | 57 | 1014.9 |
| 20260830071024 | 83 | 163 | 1.0 | 4.0 | 0.00 | 0.00 | 0.00 | 57 | 1015.0 |
| 20260830070525 | 83 | 0 | 1.0 | 2.0 | 0.00 | 0.00 | 0.00 | 57 | 1015.1 |
| 20260830070051 | 83 | 0 | 0.0 | 2.0 | 0.00 | 0.00 | 0.00 | 57 | 1015.1 |
| 20260830065525 | 83 | 160 | 0.0 | 2.0 | 0.00 | 0.00 | 0.00 | 57 | 1015.1 |
| 20260830065022 | 83 | 0 | 0.0 | 2.0 | 0.00 | 0.00 | 0.00 | 57 | 1015.2 |
| 20260830064551 | 83 | 159 | 0.0 | 3.0 | 0.00 | 0.00 | 0.00 | 57 | 1015.1 |
| 20260830064021 | 83 | 0 | 0.0 | 4.0 | 0.00 | 0.00 | 0.00 | 56 | 1015.0 |
| 20260830063523 | 84 | 0 | 1.0 | 4.0 | 0.00 | 0.00 | 0.00 | 56 | 1015.1 |
| 20260830063043 | 84 | 0 | 0.0 | 3.0 | 0.00 | 0.00 | 0.00 | 55 | 1015.1 |
| 20260830062527 | 84 | 172 | 1.0 | 4.0 | 0.00 | 0.00 | 0.00 | 55 | 1015.2 |
| 20260830062028 | 84 | 146 | 0.0 | 5.0 | 0.00 | 0.00 | 0.00 | 55 | 1015.2 |
| 20260830061559 | 84 | 147 | 1.0 | 5.0 | 0.00 | 0.00 | 0.00 | 55 | 1015.2 |
| 20260830061024 | 85 | 139 | 1.0 | 6.0 | 0.00 | 0.00 | 0.00 | 54 | 1015.2 |
| 20260830060524 | 85 | 142 | 1.0 | 6.0 | 0.00 | 0.00 | 0.00 | 54 | 1015.1 |
| 20260830060050 | 85 | 140 | 1.0 | 5.0 | 0.00 | 0.00 | 0.00 | 54 | 1015.1 |
| 20260830055523 | 85 | 157 | 1.0 | 4.0 | 0.00 | 0.00 | 0.00 | 54 | 1015.1 |
| 20260830055023 | 85 | 142 | 1.0 | 5.0 | 0.00 | 0.00 | 0.00 | 54 | 1015.1 |
| 20260830054544 | 85 | 142 | 1.0 | 5.0 | 0.00 | 0.00 | 0.00 | 54 | 1015.0 |
| 20260830054023 | 85 | 153 | 1.0 | 5.0 | 0.00 | 0.00 | 0.00 | 53 | 1015.1 |
| 20260830053524 | 85 | 153 | 1.0 | 5.0 | 0.00 | 0.00 | 0.00 | 53 | 1015.1 |
| 20260830053043 | 85 | 150 | 1.0 | 5.0 | 0.00 | 0.00 | 0.00 | 53 | 1015.2 |
| 20260830052524 | 86 | 144 | 1.0 | 4.0 | 0.00 | 0.00 | 0.00 | 52 | 1015.0 |
| 20260830052028 | 86 | 0 | 1.0 | 7.0 | 0.00 | 0.00 | 0.00 | 52 | 1015.1 |
| 20260830051557 | 86 | 153 | 2.0 | 7.0 | 0.00 | 0.00 | 0.00 | 52 | 1015.2 |
| 20260830051024 | 86 | 146 | 3.0 | 7.0 | 0.00 | 0.00 | 0.00 | 51 | 1015.2 |
| 20260830050522 | 87 | 140 | 2.0 | 8.0 | 0.00 | 0.00 | 0.00 | 51 | 1015.1 |
| 20260830050056 | 87 | 139 | 4.0 | 8.0 | 0.00 | 0.00 | 0.00 | 51 | 1015.1 |
| 20260830045523 | 87 | 146 | 3.0 | 5.0 | 0.00 | 0.00 | 0.00 | 50 | 1015.2 |
| 20260830045022 | 87 | 144 | 3.0 | 5.0 | 0.00 | 0.00 | 0.00 | 51 | 1015.2 |
| 20260830044544 | 87 | 147 | 2.0 | 5.0 | 0.00 | 0.00 | 0.00 | 51 | 1015.1 |
| 20260830044022 | 87 | 151 | 2.0 | 5.0 | 0.00 | 0.00 | 0.00 | 50 | 1015.1 |
| 20260830043521 | 87 | 139 | 2.0 | 9.0 | 0.00 | 0.00 | 0.00 | 49 | 1015.2 |
| 20260830043043 | 88 | 139 | 3.0 | 9.0 | 0.00 | 0.00 | 0.00 | 49 | 1015.2 |
| 20260830042525 | 88 | 138 | 5.0 | 9.0 | 0.00 | 0.00 | 0.00 | 48 | 1015.2 |
| 20260830042025 | 88 | 130 | 5.0 | 9.0 | 0.00 | 0.00 | 0.00 | 48 | 1015.1 |
| 20260830041600 | 88 | 148 | 5.0 | 9.0 | 0.00 | 0.00 | 0.00 | 48 | 1015.2 |
| 20260830041023 | 88 | 119 | 5.0 | 9.0 | 0.00 | 0.00 | 0.00 | 48 | 1015.1 |
| 20260830040522 | 88 | 142 | 5.0 | 9.0 | 0.00 | 0.00 | 0.00 | 47 | 1015.1 |
| 20260830040106 | 88 | 130 | 5.0 | 9.0 | 0.00 | 0.00 | 0.00 | 47 | 1015.0 |
| 20260830035519 | 89 | 139 | 5.0 | 9.0 | 0.00 | 0.00 | 0.00 | 47 | 1015.1 |
| 20260830035022 | 89 | 140 | 4.0 | 9.0 | 0.00 | 0.00 | 0.00 | 47 | 1015.0 |
| 20260830034543 | 89 | 154 | 5.0 | 9.0 | 0.00 | 0.00 | 0.00 | 47 | 1015.0 |
| 20260830034022 | 89 | 126 | 4.0 | 9.0 | 0.00 | 0.00 | 0.00 | 47 | 1014.9 |
| 20260830033526 | 89 | 145 | 6.0 | 9.0 | 0.00 | 0.00 | 0.00 | 46 | 1014.8 |
| 20260830033046 | 89 | 136 | 5.0 | 9.0 | 0.00 | 0.00 | 0.00 | 46 | 1014.9 |
| 20260830032521 | 89 | 130 | 4.0 | 10.0 | 0.00 | 0.00 | 0.00 | 46 | 1014.8 |
| 20260830032024 | 89 | 123 | 4.0 | 10.0 | 0.00 | 0.00 | 0.00 | 46 | 1014.7 |
| 20260830031548 | 89 | 138 | 5.0 | 8.0 | 0.00 | 0.00 | 0.00 | 46 | 1014.7 |
| 20260830031024 | 89 | 143 | 5.0 | 8.0 | 0.00 | 0.00 | 0.00 | 45 | 1014.7 |
| 20260830030525 | 89 | 137 | 4.0 | 8.0 | 0.00 | 0.00 | 0.00 | 45 | 1014.6 |
| 20260830030044 | 90 | 128 | 5.0 | 8.0 | 0.00 | 0.00 | 0.00 | 44 | 1014.5 |
| 20260830025522 | 90 | 145 | 4.0 | 8.0 | 0.00 | 0.00 | 0.00 | 44 | 1014.5 |
| 20260830025022 | 90 | 140 | 3.0 | 7.0 | 0.00 | 0.00 | 0.00 | 44 | 1014.5 |
| 20260830024545 | 90 | 126 | 2.0 | 7.0 | 0.00 | 0.00 | 0.00 | 43 | 1014.5 |
| 20260830024024 | 90 | 143 | 3.0 | 8.0 | 0.00 | 0.00 | 0.00 | 42 | 1014.5 |
| 20260830023521 | 90 | 141 | 3.0 | 9.0 | 0.00 | 0.00 | 0.00 | 42 | 1014.4 |
| 20260830023045 | 91 | 140 | 4.0 | 9.0 | 0.00 | 0.00 | 0.00 | 41 | 1014.4 |
| 20260830022525 | 90 | 132 | 4.0 | 9.0 | 0.00 | 0.00 | 0.00 | 42 | 1014.3 |
| 20260830022025 | 90 | 124 | 3.0 | 7.0 | 0.00 | 0.00 | 0.00 | 42 | 1014.1 |